Index of /digital/guides/b

[ICO]NameLast modifiedSizeDescription

[DIR]Parent Directory  -  
[IMG]burlingame_fam.tif09-Jun-2012 12:34 5.8M 
[TXT]breuer_m.htm19-Oct-2017 14:34 4.7M 
[   ]breuer_m.pdf22-Mar-2016 13:47 2.7M 
[TXT]belluschi_p.htm19-Oct-2017 14:34 1.9M 
[TXT]bourke-white_m.htm19-Oct-2017 14:34 1.6M 
[   ]MBW_InventoryFinalCopy.xlsx31-Aug-2016 12:48 1.3M 
[TXT]browder_e.htm19-Oct-2017 14:34 818K 
[TXT]bell_brothers.htm19-Oct-2017 14:34 697K 
[TXT]bleier_e.htm19-Oct-2017 14:34 518K 
[   ]beckerinventory.xls26-Jun-2012 12:18 492K 
[   ]belfer_45s_labels.pdf22-Sep-2017 17:14 482K 
[TXT]bontemps_aw.htm19-Oct-2017 14:34 457K 
[TXT]becker_eisenmann.htm19-Oct-2017 14:34 440K 
[   ]breger_d_mister_inv.pdf09-Jun-2012 12:33 430K 
[   ]bald_k_drkildare_inv.pdf09-Jun-2012 12:33 406K 
[   ]belfer_lps_labels.pdf22-Sep-2017 17:14 340K 
[TXT]burlingame_fam.htm19-Oct-2017 14:34 291K 
[TXT]brisbane_family.htm19-Oct-2017 14:34 271K 
[   ]bald_k_juddsaxon_inv.pdf09-Jun-2012 12:33 270K 
[TXT]bacon_e.htm19-Oct-2017 14:34 254K 
[TXT]basset_g.htm19-Oct-2017 14:34 238K 
[TXT]baldwin_co.htm19-Oct-2017 14:34 233K 
[   ]breger_d_private_inv.pdf09-Jun-2012 12:33 232K 
[   ]belfer_78s_labels.pdf22-Sep-2017 17:14 223K 
[TXT]beck_g.htm19-Oct-2017 14:34 220K 
[TXT]brown_sg.htm19-Oct-2017 14:34 217K 
[   ]berenstain_s_j_inv.pdf09-Jun-2012 12:33 208K 
[TXT]biddle_f.htm19-Oct-2017 14:34 204K 
[   ]brooks_c_inv.pdf09-Jun-2012 12:33 199K 
[IMG]belfer_cylinders_insert.png09-Jun-2012 12:33 198K 
[TXT]berg_g.htm19-Oct-2017 14:34 188K 
[   ]berry_j_inv.pdf09-Jun-2012 12:33 184K 
[TXT]burden_j.htm19-Oct-2017 14:34 182K 
[   ]bolle_f_inv.pdf09-Jun-2012 12:33 179K 
[   ]browne_d_inv.pdf09-Jun-2012 12:33 178K 
[IMG]belfer_wire_0004.png09-Jun-2012 12:33 176K 
[   ]blosser_m_inv.pdf09-Jun-2012 12:33 170K 
[TXT]bergman_p.htm19-Oct-2017 14:34 150K 
[TXT]bachrach_lf.htm19-Oct-2017 14:34 139K 
[TXT]brossard_c.htm19-Oct-2017 14:34 132K 
[TXT]bohrod_a.htm19-Oct-2017 14:34 132K 
[TXT]baum_dj.htm19-Oct-2017 14:34 132K 
[TXT]bloom_spock.htm19-Oct-2017 14:34 114K 
[TXT]braithwaite_ws.htm19-Oct-2017 14:34 107K 
[TXT]balk_a.htm19-Oct-2017 14:34 106K 
[TXT]brightman_sc.htm19-Oct-2017 14:34 89K 
[TXT]bull_jm.htm19-Oct-2017 14:34 76K 
[TXT]bolm_a.htm19-Oct-2017 14:34 70K 
[TXT]baum_lf.htm19-Oct-2017 14:34 69K 
[TXT]bail_gs.htm19-Oct-2017 14:34 69K 
[TXT]barck_ot.htm19-Oct-2017 14:34 68K 
[TXT]bown_lj.htm19-Oct-2017 14:34 66K 
[TXT]bell_latin.htm19-Oct-2017 14:34 64K 
[TXT]bonn_publish.htm19-Oct-2017 14:34 64K 
[TXT]begley_e.htm19-Oct-2017 14:34 60K 
[TXT]burliuk_d.htm19-Oct-2017 14:34 60K 
[TXT]borgstedt_d.htm19-Oct-2017 14:34 60K 
[TXT]blakely_rj.htm19-Oct-2017 14:34 60K 
[TXT]bourdelle_p.htm19-Oct-2017 14:34 59K 
[TXT]buxbaum_m.htm19-Oct-2017 14:34 56K 
[TXT]bennett_m.htm19-Oct-2017 14:34 54K 
[TXT]bastian_r.htm19-Oct-2017 14:34 53K 
[TXT]blatas_a.htm19-Oct-2017 14:34 51K 
[TXT]brick_j.htm19-Oct-2017 14:34 51K 
[TXT]brockway_fam.htm19-Oct-2017 14:34 50K 
[TXT]bacon_p.htm19-Oct-2017 14:34 48K 
[TXT]barrett_hv.htm10-Nov-2017 15:42 48K 
[TXT]benz_e.htm19-Oct-2017 14:34 47K 
[TXT]barker_w.htm19-Oct-2017 14:34 47K 
[TXT]bercovici_k.htm19-Oct-2017 14:34 47K 
[TXT]belfer_rsc.htm19-Oct-2017 14:34 47K 
[TXT]berenstain_s_j.htm19-Oct-2017 14:34 46K 
[TXT]benjamin_wh.htm19-Oct-2017 14:34 46K 
[TXT]bushman_ef.htm19-Oct-2017 14:34 45K 
[TXT]bates_ge.htm19-Oct-2017 14:34 45K 
[TXT]berrigan_t.htm19-Oct-2017 14:34 44K 
[TXT]bailey_t.htm19-Oct-2017 14:34 42K 
[TXT]bogner_n.htm19-Oct-2017 14:34 42K 
[TXT]brumbaugh_de.htm19-Oct-2017 14:34 42K 
[TXT]bald_k.htm19-Oct-2017 14:34 41K 
[TXT]belfer_port.htm19-Oct-2017 14:34 39K 
[TXT]bultmann_rk.htm19-Oct-2017 14:34 38K 
[TXT]beach_hm.htm19-Oct-2017 14:34 37K 
[TXT]brown_pe.htm19-Oct-2017 14:34 36K 
[TXT]bridgewater_ny_cc.htm19-Oct-2017 14:34 35K 
[TXT]bliss_js.htm19-Oct-2017 14:34 34K 
[TXT]brown_tc.htm19-Oct-2017 14:34 34K 
[TXT]brooks_c.htm19-Oct-2017 14:34 33K 
[TXT]baer_j.htm19-Oct-2017 14:34 33K 
[TXT]beaudoin_kl.htm19-Oct-2017 14:34 33K 
[TXT]blackwell_hg.htm19-Oct-2017 14:34 32K 
[   ]bolle_f_inv.xlsx09-Jun-2012 12:33 31K 
[TXT]buffington_k.htm19-Oct-2017 14:34 31K 
[TXT]burton_rf.htm19-Oct-2017 14:34 30K 
[TXT]bond_ih.htm19-Oct-2017 14:34 30K 
[TXT]breger_d.htm19-Oct-2017 14:34 30K 
[   ]berry_j_inv.xlsx09-Jun-2012 12:33 30K 
[TXT]benesch_a.htm19-Oct-2017 14:34 29K 
[TXT]billard_e.htm19-Oct-2017 14:34 29K 
[   ]browne_d_inv.xlsx09-Jun-2012 12:33 29K 
[TXT]botkin_h.htm19-Oct-2017 14:34 28K 
[TXT]branner_m.htm19-Oct-2017 14:34 28K 
[TXT]baldwin_hw.htm19-Oct-2017 14:34 28K 
[TXT]barbour_b.htm19-Oct-2017 14:34 28K 
[TXT]birchfield_mayfield.htm19-Oct-2017 14:34 27K 
[TXT]brereton_lh.htm19-Oct-2017 14:34 27K 
[TXT]batten_mw.htm19-Oct-2017 14:34 27K 
[TXT]bocour_l.htm19-Oct-2017 14:34 27K 
[TXT]belcher_sl.htm19-Oct-2017 14:34 26K 
[TXT]bradbury_cr.htm19-Oct-2017 14:34 25K 
[TXT]batchelor_cd.htm19-Oct-2017 14:34 25K 
[   ]blosser_m_inv.xlsx09-Jun-2012 12:33 25K 
[TXT]baptist_pompey.htm19-Oct-2017 14:34 25K 
[TXT]bourke-white_coll.htm19-Oct-2017 14:34 25K 
[TXT]byron_gg.htm19-Oct-2017 14:34 24K 
[TXT]ballard_jb.htm19-Oct-2017 14:34 23K 
[TXT]benson_e.htm19-Oct-2017 14:34 23K 
[TXT]burn_w.htm19-Oct-2017 14:34 23K 
[TXT]barnet_w.htm19-Oct-2017 14:34 23K 
[TXT]bender_j.htm19-Oct-2017 14:34 22K 
[TXT]brown_l.htm19-Oct-2017 14:34 22K 
[TXT]baird_sf.htm19-Oct-2017 14:34 21K 
[TXT]bergthold_l.htm19-Oct-2017 14:34 21K 
[TXT]betts_fw.htm19-Oct-2017 14:34 21K 
[TXT]bromfield_tremont.htm19-Oct-2017 14:34 21K 
[TXT]barker_ew.htm19-Oct-2017 14:34 21K 
[TXT]becvar_a.htm19-Oct-2017 14:34 20K 
[TXT]browne_d.htm19-Oct-2017 14:34 20K 
[TXT]bassford_w.htm19-Oct-2017 14:34 20K 
[TXT]bakelite.htm19-Oct-2017 14:34 20K 
[TXT]broadsides.htm19-Oct-2017 14:34 19K 
[TXT]barton_we.htm19-Oct-2017 14:34 19K 
[TXT]belfer_cylinders.htm19-Oct-2017 14:34 19K 
[TXT]bogert_ja.htm19-Oct-2017 14:34 19K 
[TXT]buchanan_p.htm19-Oct-2017 14:34 19K 
[TXT]berry_mm.htm19-Oct-2017 14:34 19K 
[TXT]bancroft_g.htm19-Oct-2017 14:34 18K 
[TXT]bruce_g.htm19-Oct-2017 14:34 18K 
[TXT]bowden_devries.htm19-Oct-2017 14:34 18K 
[TXT]baker_rp.htm19-Oct-2017 14:34 18K 
[TXT]belfer_discs.htm19-Oct-2017 14:34 17K 
[TXT]beebe_fam.htm19-Oct-2017 14:34 17K 
[TXT]berge_c.htm19-Oct-2017 14:34 17K 
[TXT]brewster_ah.htm19-Oct-2017 14:34 17K 
[TXT]bolle_f.htm19-Oct-2017 14:34 16K 
[TXT]bush_ge.htm19-Oct-2017 14:34 16K 
[TXT]blanding_db.htm19-Oct-2017 14:34 16K 
[TXT]bergevin_p.htm19-Oct-2017 14:34 16K 
[TXT]blackwell_w.htm19-Oct-2017 14:34 16K 
[TXT]boutwell_g.htm19-Oct-2017 14:34 16K 
[TXT]bruce_e.htm19-Oct-2017 14:34 16K 
[TXT]barroll_hh.htm19-Oct-2017 14:34 15K 
[TXT]bullins_e.htm19-Oct-2017 14:34 15K 
[TXT]booth_n.htm19-Oct-2017 14:34 15K 
[TXT]brady_ct.htm19-Oct-2017 14:34 15K 
[TXT]bank_of_newburgh.htm19-Oct-2017 14:34 15K 
[TXT]beach_r.htm19-Oct-2017 14:34 15K 
[TXT]blosser_m.htm19-Oct-2017 14:34 15K 
[TXT]brooks_gs.htm19-Oct-2017 14:34 15K 
[TXT]baldwin_j.htm19-Oct-2017 14:34 15K 
[TXT]brandt_brandt.htm19-Oct-2017 14:34 15K 
[TXT]battle_hymn.htm19-Oct-2017 14:34 15K 
[TXT]bronston_je.htm19-Oct-2017 14:34 15K 
[TXT]blitz_coll.htm19-Oct-2017 14:34 14K 
[TXT]berry_j.htm19-Oct-2017 14:34 14K 
[TXT]barolini_h.htm19-Oct-2017 14:34 14K 
[TXT]browning_eb.htm19-Oct-2017 14:34 14K 
[TXT]bradley_j.htm19-Oct-2017 14:34 14K 
[TXT]brooks_p.htm19-Oct-2017 14:34 14K 
[TXT]byrne_ej.htm19-Oct-2017 14:34 14K 
[TXT]battcock_m.htm19-Oct-2017 14:34 14K 
[TXT]bache_ad.htm19-Oct-2017 14:34 14K 
[TXT]boatwright_h.htm19-Oct-2017 14:34 14K 
[TXT]bolta.htm19-Oct-2017 14:34 14K 
[TXT]bailey_r.htm19-Oct-2017 14:34 14K 
[TXT]baskin_l.htm19-Oct-2017 14:34 14K 
[TXT]badeau_a.htm19-Oct-2017 14:34 14K 
[TXT]brown_j_jr.htm19-Oct-2017 14:34 13K 
[TXT]ben_buckhurst.htm19-Oct-2017 14:34 13K 
[TXT]brookfield.htm19-Oct-2017 14:34 13K 
[TXT]borst_e.htm19-Oct-2017 14:34 13K 
[TXT]burleigh_w.htm19-Oct-2017 14:34 13K 
[TXT]blacksmith_shop.htm19-Oct-2017 14:34 13K 
[TXT]baldwin_c.htm19-Oct-2017 14:34 13K 
[TXT]bishop_dw.htm19-Oct-2017 14:34 13K 
[TXT]beauchamp_wl.htm19-Oct-2017 14:34 13K 
[TXT]bolotowsky_i.htm19-Oct-2017 14:34 13K 
[TXT]buchanan_j.htm19-Oct-2017 14:34 13K 
[TXT]beckhard_h.htm19-Oct-2017 14:34 12K 
[TXT]bennett_d.htm19-Oct-2017 14:34 12K 
[TXT]beverley_r.htm19-Oct-2017 14:34 12K 
[TXT]browning_r.htm19-Oct-2017 14:34 12K 
[TXT]barker_rm.htm19-Oct-2017 14:34 12K 
[TXT]bode_v.htm10-Nov-2017 13:47 12K 
[TXT]brown_d.htm19-Oct-2017 14:34 12K 
[TXT]burns_r.htm19-Oct-2017 14:34 12K 
[TXT]blackmore_rd.htm19-Oct-2017 14:34 12K 
[TXT]benson_dm.htm19-Oct-2017 14:34 12K 
[TXT]browning_c.htm19-Oct-2017 14:34 12K 
[TXT]babcock_d.htm19-Oct-2017 14:34 12K 
[TXT]brown_hg.htm19-Oct-2017 14:34 12K 
[TXT]bacheller_i.htm19-Oct-2017 14:34 12K 
[TXT]biddle_mc.htm19-Oct-2017 14:34 12K 
[TXT]brewer_la.htm19-Oct-2017 14:34 12K 
[TXT]brown_a.htm19-Oct-2017 14:34 12K 
[TXT]benjamin_e.htm19-Oct-2017 14:34 12K 
[TXT]berkeley_park.htm19-Oct-2017 14:34 12K 
[TXT]burroughs_ws.htm19-Oct-2017 14:34 12K 
[TXT]baker_sw.htm19-Oct-2017 14:34 12K 
[TXT]batts_album.htm19-Oct-2017 14:34 12K 
[TXT]breger_cartoon.htm19-Oct-2017 14:34 12K 
[TXT]bissell_r.htm19-Oct-2017 14:34 12K 
[TXT]barnes_j.htm19-Oct-2017 14:34 12K 
[TXT]bannister_munsell.htm19-Oct-2017 14:34 11K 
[TXT]burdick_h.htm19-Oct-2017 14:34 11K 
[TXT]belmont_a.htm19-Oct-2017 14:34 11K 
[TXT]bennett_sf.htm19-Oct-2017 14:34 11K 
[TXT]bynner_w.htm19-Oct-2017 14:34 11K 
[TXT]beggs_fe.htm19-Oct-2017 14:34 11K 
[TXT]bilik_se.htm19-Oct-2017 14:34 11K 
[TXT]blanchard_i.htm19-Oct-2017 14:34 11K 
[TXT]belfer_wire.htm19-Oct-2017 14:34 11K 
[TXT]bradford_ss.htm19-Oct-2017 14:34 11K 
[TXT]balzac_hd.htm19-Oct-2017 14:34 11K 
[TXT]brown_tw.htm19-Oct-2017 14:34 11K 
[TXT]baker_dg.htm19-Oct-2017 14:34 11K 
[TXT]binghamton_hous.htm19-Oct-2017 14:34 11K 
[TXT]blair_rn.htm19-Oct-2017 14:34 11K 
[TXT]bryant_h.htm19-Oct-2017 14:34 11K 
[TXT]blaine_jg.htm10-Nov-2017 13:47 11K 
[TXT]baring-gould_s.htm19-Oct-2017 14:34 11K 
[TXT]burnett_fh.htm19-Oct-2017 14:34 11K 
[TXT]berman_e.htm19-Oct-2017 14:34 11K 
[TXT]baugh_l.htm19-Oct-2017 14:34 11K 
[TXT]brinkerhoff_gh.htm19-Oct-2017 14:34 11K 
[TXT]beckman_rh.htm19-Oct-2017 14:34 10K 
[TXT]bank_of_monroe.htm19-Oct-2017 14:34 10K 
[TXT]baer_a.htm19-Oct-2017 14:34 10K 
[TXT]boulton_m.htm19-Oct-2017 14:34 10K 
[TXT]burckhardt_j.htm19-Oct-2017 14:34 10K 
[TXT]britton_ja.htm19-Oct-2017 14:34 10K 
[TXT]bank_of_us.htm19-Oct-2017 14:34 10K 
[TXT]bingham_jg.htm19-Oct-2017 14:34 10K 
[TXT]barrie_jm.htm19-Oct-2017 14:34 10K 
[TXT]betts_st.htm19-Oct-2017 14:34 10K 
[TXT]baby_cons.htm19-Oct-2017 14:34 10K 
[TXT]boyle_jt.htm19-Oct-2017 14:34 9.9K 
[TXT]baker_b.htm19-Oct-2017 14:34 9.7K 
[TXT]burns_vg.htm19-Oct-2017 14:34 9.6K 
[TXT]bason_ft.htm19-Oct-2017 14:34 9.6K 
[TXT]brian_d.htm19-Oct-2017 14:34 9.5K 
[TXT]barnes_wb.htm19-Oct-2017 14:34 9.4K 
[TXT]briggs_e.htm19-Oct-2017 14:34 9.4K 
[TXT]blaich_r.htm19-Oct-2017 14:34 9.3K 
[TXT]barron_a.htm19-Oct-2017 14:34 9.2K 
[TXT]batchelor_cw.htm19-Oct-2017 14:34 9.0K 
[TXT]broder_ir.htm19-Oct-2017 14:34 9.0K